Location: Prague
(50.0830°N, 14.4670°E)
Time: 21:34:46
(UTC+02:00)

Envisat - Visible Passes

Search period start: 26 September 2021 00:00
Search period end: 06 October 2021 00:00
Orbit: 764 x 766 km, 98.2° (Epoch: 26 September)

Date Brightness Start Highest point End Pass type
(mag) Time Alt. Az. Time Alt. Az. Time Alt. Az.
26 Sep 5.3 05:21:15 10° NE 05:25:29 26° E 05:29:42 10° SSE visible
27 Sep 6.1 04:45:54 10° ENE 04:48:10 13° E 04:50:26 10° ESE visible
28 Sep 4.4 05:46:12 10° NNE 05:51:01 41° E 05:55:49 10° SSE visible
29 Sep 5.6 05:10:02 10° NE 05:13:51 21° E 05:17:40 10° SE visible
30 Sep 6.4 04:36:20 10° E 04:36:28 10° E 04:36:37 10° E visible
30 Sep 3.5 06:11:23 10° NNE 06:16:28 68° ESE 06:21:31 10° S visible
01 Oct 4.8 05:34:49 10° NNE 05:39:26 34° E 05:44:01 10° SSE visible
02 Oct 5.9 04:58:53 10° NE 05:02:12 17° E 05:05:29 10° SE visible
03 Oct 3.9 05:59:55 10° NNE 06:04:55 55° E 06:09:53 10° S visible
04 Oct 5.2 05:23:30 10° NE 05:27:50 27° E 05:32:08 10° SSE visible
05 Oct 6.0 04:47:57 10° NE 04:50:31 14° E 04:53:05 10° ESE visible
05 Oct 3.1 06:25:11 10° NNE 06:30:19 88° ESE 06:35:24 10° SSW visible
